Meteo orario Allanton

Oggi, 20 Ottobre, Martedi

Tempo Temperatura Precipitazioni Vento Pressione Umidità
00:00 +10°C° 0 mm 4 m/s 744 mm Hg 95%
01:00 +8°C° 0.1 mm 4 m/s 744 mm Hg 94%
02:00 +8°C° 0.1 mm 4 m/s 743 mm Hg 92%
03:00 +8°C° 0.1 mm 4 m/s 742 mm Hg 91%
04:00 +8°C° 0.1 mm 4 m/s 742 mm Hg 91%
05:00 +8°C° 0.1 mm 4 m/s 741 mm Hg 91%
06:00 +8°C° 0.1 mm 5 m/s 741 mm Hg 90%
07:00 +8°C° 0 mm 4 m/s 740 mm Hg 90%
08:00 +8°C° 0 mm 4 m/s 740 mm Hg 90%
09:00 +10°C° 0 mm 4 m/s 740 mm Hg 91%
10:00 +11°C° 0 mm 4 m/s 740 mm Hg 87%
11:00 +13°C° 0 mm 4 m/s 740 mm Hg 84%
12:00 +14°C° 0 mm 3 m/s 740 mm Hg 81%
13:00 +14°C° 0.1 mm 3 m/s 740 mm Hg 81%
14:00 +14°C° 0.1 mm 3 m/s 740 mm Hg 82%
15:00 +14°C° 0.1 mm 3 m/s 740 mm Hg 82%
16:00 +13°C° 0.1 mm 3 m/s 740 mm Hg 84%
17:00 +12°C° 0.1 mm 4 m/s 740 mm Hg 86%
18:00 +11°C° 0.1 mm 4 m/s 740 mm Hg 89%
19:00 +11°C° 0 mm 4 m/s 741 mm Hg 89%
20:00 +11°C° 0 mm 4 m/s 741 mm Hg 90%
21:00 +10°C° 0 mm 3 m/s 741 mm Hg 90%
22:00 +10°C° 0 mm 3 m/s 741 mm Hg 90%
23:00 +10°C° 0 mm 3 m/s 741 mm Hg 91%

Domani, 21 Ottobre, Mercoledi

Tempo Temperatura Precipitazioni Vento Pressione Umidità
00:00 +9°C° 0 mm 3 m/s 741 mm Hg 91%
01:00 +9°C° 0 mm 3 m/s 741 mm Hg 91%
02:00 +9°C° 0 mm 3 m/s 740 mm Hg 91%
03:00 +9°C° 0 mm 2 m/s 740 mm Hg 92%
04:00 +9°C° 0 mm 2 m/s 740 mm Hg 93%
05:00 +9°C° 0 mm 2 m/s 740 mm Hg 94%
06:00 +10°C° 0 mm 2 m/s 740 mm Hg 95%
07:00 +10°C° 0.8 mm 2 m/s 739 mm Hg 96%
08:00 +10°C° 0.8 mm 2 m/s 739 mm Hg 96%
09:00 +12°C° 0.8 mm 1 m/s 739 mm Hg 97%
10:00 +12°C° 0.9 mm 2 m/s 739 mm Hg 97%
11:00 +12°C° 0.9 mm 2 m/s 739 mm Hg 97%
12:00 +12°C° 0.9 mm 2 m/s 739 mm Hg 97%
13:00 +12°C° 0.3 mm 2 m/s 739 mm Hg 97%
14:00 +12°C° 0.3 mm 2 m/s 739 mm Hg 97%
15:00 +12°C° 0.3 mm 2 m/s 739 mm Hg 96%
16:00 +12°C° 0.2 mm 2 m/s 740 mm Hg 96%
17:00 +12°C° 0.2 mm 2 m/s 740 mm Hg 96%
18:00 +11°C° 0.2 mm 1 m/s 741 mm Hg 96%
19:00 +10°C° 1.2 mm 2 m/s 741 mm Hg 97%
20:00 +10°C° 1.2 mm 2 m/s 741 mm Hg 97%
21:00 +10°C° 1.2 mm 3 m/s 742 mm Hg 98%
22:00 +10°C° 1.2 mm 3 m/s 742 mm Hg 97%
23:00 +10°C° 1.2 mm 4 m/s 742 mm Hg 96%

Dopodomani, 22 Ottobre, Giovedi

Tempo Temperatura Precipitazioni Vento Pressione Umidità
00:00 +9°C° 1.2 mm 5 m/s 743 mm Hg 96%
01:00 +8°C° 2.1 mm 5 m/s 743 mm Hg 96%
02:00 +8°C° 2.1 mm 5 m/s 743 mm Hg 96%
03:00 +8°C° 2.1 mm 5 m/s 743 mm Hg 96%
04:00 +8°C° 0.5 mm 5 m/s 743 mm Hg 95%
05:00 +8°C° 0.5 mm 5 m/s 743 mm Hg 94%
06:00 +7°C° 0.5 mm 5 m/s 743 mm Hg 94%
07:00 +7°C° 0.2 mm 5 m/s 743 mm Hg 93%
08:00 +7°C° 0.2 mm 5 m/s 744 mm Hg 92%
09:00 +7°C° 0.2 mm 5 m/s 744 mm Hg 91%
10:00 +7°C° 0.1 mm 5 m/s 744 mm Hg 90%
11:00 +7°C° 0.1 mm 5 m/s 744 mm Hg 90%
12:00 +7°C° 0.1 mm 5 m/s 744 mm Hg 89%
13:00 +7°C° 0.1 mm 5 m/s 744 mm Hg 89%
14:00 +7°C° 0.1 mm 5 m/s 744 mm Hg 89%
15:00 +7°C° 0.1 mm 4 m/s 744 mm Hg 89%
16:00 +7°C° 0 mm 4 m/s 744 mm Hg 89%
17:00 +8°C° 0 mm 3 m/s 744 mm Hg 89%
18:00 +7°C° 0 mm 2 m/s 745 mm Hg 89%
19:00 +7°C° 0 mm 2 m/s 745 mm Hg 88%
20:00 +7°C° 0 mm 2 m/s 745 mm Hg 88%
21:00 +8°C° 0 mm 1 m/s 746 mm Hg 87%
22:00 +8°C° 0 mm 1 m/s 746 mm Hg 88%
23:00 +8°C° 0 mm 1 m/s 746 mm Hg 89%

23 Ottobre, Venerdi

Tempo Temperatura Precipitazioni Vento Pressione Umidità
00:00 +7°C° 0 mm 2 m/s 746 mm Hg 90%
01:00 +7°C° 0 mm 2 m/s 746 mm Hg 91%
02:00 +7°C° 0 mm 2 m/s 746 mm Hg 92%
03:00 +7°C° 0 mm 3 m/s 745 mm Hg 93%
04:00 +6°C° 0 mm 4 m/s 745 mm Hg 91%
05:00 +6°C° 0 mm 4 m/s 745 mm Hg 90%
06:00 +5°C° 0 mm 5 m/s 744 mm Hg 88%
07:00 +6°C° 0.1 mm 5 m/s 744 mm Hg 89%
08:00 +7°C° 0.1 mm 5 m/s 744 mm Hg 89%
09:00 +8°C° 0.1 mm 5 m/s 744 mm Hg 89%
10:00 +8°C° 0.1 mm 6 m/s 744 mm Hg 85%
11:00 +8°C° 0.1 mm 6 m/s 744 mm Hg 81%
12:00 +9°C° 0.1 mm 6 m/s 744 mm Hg 77%
13:00 +9°C° 0.1 mm 7 m/s 744 mm Hg 76%
14:00 +8°C° 0.1 mm 7 m/s 744 mm Hg 75%
15:00 +7°C° 0.1 mm 8 m/s 745 mm Hg 74%
16:00 +6°C° 0 mm 8 m/s 745 mm Hg 76%
17:00 +5°C° 0 mm 8 m/s 746 mm Hg 79%
18:00 +4°C° 0 mm 8 m/s 746 mm Hg 81%
19:00 +4°C° 0 mm 8 m/s 747 mm Hg 81%
20:00 +4°C° 0 mm 8 m/s 747 mm Hg 81%
21:00 +2°C° 0 mm 8 m/s 748 mm Hg 81%
22:00 +4°C° 0 mm 8 m/s 748 mm Hg 81%
23:00 +4°C° 0 mm 7 m/s 748 mm Hg 82%

24 Ottobre, Sabato

Tempo Temperatura Precipitazioni Vento Pressione Umidità
00:00 +4°C° 0 mm 7 m/s 748 mm Hg 82%
01:00 +3°C° 0 mm 6 m/s 748 mm Hg 85%
02:00 +3°C° 0 mm 6 m/s 748 mm Hg 87%
03:00 +3°C° 0 mm 5 m/s 748 mm Hg 89%
04:00 +4°C° 0 mm 6 m/s 747 mm Hg 88%
05:00 +4°C° 0 mm 7 m/s 747 mm Hg 86%
06:00 +5°C° 0 mm 8 m/s 747 mm Hg 85%
07:00 +6°C° 0.1 mm 9 m/s 746 mm Hg 86%
08:00 +7°C° 0.1 mm 9 m/s 746 mm Hg 86%
09:00 +8°C° 0.1 mm 10 m/s 745 mm Hg 86%
10:00 +9°C° 0 mm 10 m/s 745 mm Hg 86%
11:00 +9°C° 0 mm 10 m/s 745 mm Hg 85%
12:00 +11°C° 0 mm 9 m/s 744 mm Hg 84%
13:00 +11°C° 0 mm 9 m/s 744 mm Hg 84%
14:00 +11°C° 0 mm 9 m/s 743 mm Hg 84%
15:00 +11°C° 0 mm 9 m/s 743 mm Hg 84%
16:00 +11°C° 0 mm 8 m/s 742 mm Hg 84%
17:00 +11°C° 0 mm 8 m/s 741 mm Hg 84%
18:00 +11°C° 0 mm 8 m/s 741 mm Hg 84%
19:00 +11°C° 0 mm 8 m/s 740 mm Hg 84%
20:00 +11°C° 0 mm 8 m/s 740 mm Hg 85%
21:00 +11°C° 0 mm 8 m/s 739 mm Hg 85%
22:00 +11°C° 0.1 mm 8 m/s 739 mm Hg 85%
23:00 +11°C° 0.1 mm 8 m/s 738 mm Hg 85%

25 Ottobre, Domenica

Tempo Temperatura Precipitazioni Vento Pressione Umidità
00:00 +12°C° 0.1 mm 8 m/s 737 mm Hg 85%
01:00 +12°C° 0.1 mm 8 m/s 737 mm Hg 86%
02:00 +12°C° 0.1 mm 8 m/s 737 mm Hg 87%
03:00 +12°C° 0.1 mm 8 m/s 736 mm Hg 88%
04:00 +11°C° 0.4 mm 7 m/s 736 mm Hg 88%
05:00 +10°C° 0.4 mm 7 m/s 737 mm Hg 88%
06:00 +10°C° 0.4 mm 6 m/s 737 mm Hg 89%
07:00 +9°C° 0.1 mm 6 m/s 738 mm Hg 87%
08:00 +9°C° 0.1 mm 6 m/s 738 mm Hg 86%
09:00 +9°C° 0.1 mm 6 m/s 739 mm Hg 84%
10:00 +9°C° 0 mm 6 m/s 740 mm Hg 80%
11:00 +9°C° 0 mm 6 m/s 740 mm Hg 76%
12:00 +10°C° 0 mm 6 m/s 741 mm Hg 72%
13:00 +10°C° 0 mm 6 m/s 741 mm Hg 72%
14:00 +10°C° 0 mm 5 m/s 741 mm Hg 73%
15:00 +9°C° 0 mm 5 m/s 741 mm Hg 73%
16:00 +8°C° 0 mm 5 m/s 741 mm Hg 77%
17:00 +8°C° 0 mm 5 m/s 741 mm Hg 81%
18:00 +7°C° 0 mm 5 m/s 742 mm Hg 85%
19:00 +6°C° 0 mm 5 m/s 742 mm Hg 87%
20:00 +6°C° 0 mm 5 m/s 742 mm Hg 89%
21:00 +6°C° 0 mm 5 m/s 742 mm Hg 91%
22:00 +5°C° 0 mm 4 m/s 742 mm Hg 91%
23:00 +5°C° 0 mm 4 m/s 742 mm Hg 92%

26 Ottobre, Lunedi

Tempo Temperatura Precipitazioni Vento Pressione Umidità
00:00 +5°C° 0 mm 4 m/s 741 mm Hg 93%
01:00 +5°C° 0 mm 4 m/s 741 mm Hg 93%
02:00 +5°C° 0 mm 4 m/s 741 mm Hg 93%
03:00 +5°C° 0 mm 4 m/s 741 mm Hg 93%
04:00 +5°C° 0.1 mm 5 m/s 741 mm Hg 92%
05:00 +5°C° 0.1 mm 5 m/s 740 mm Hg 92%
06:00 +5°C° 0.1 mm 5 m/s 740 mm Hg 92%
07:00 +4°C° 0 mm 6 m/s 740 mm Hg 89%
08:00 +5°C° 0 mm 6 m/s 740 mm Hg 86%
09:00 +5°C° 0 mm 7 m/s 739 mm Hg 83%
10:00 +6°C° 0 mm 7 m/s 739 mm Hg 80%
11:00 +7°C° 0 mm 8 m/s 738 mm Hg 77%
12:00 +7°C° 0 mm 8 m/s 737 mm Hg 75%
13:00 +7°C° 1.2 mm 8 m/s 737 mm Hg 79%
14:00 +6°C° 1.2 mm 8 m/s 736 mm Hg 84%
15:00 +5°C° 1.2 mm 8 m/s 735 mm Hg 89%
16:00 +5°C° 0.1 mm 7 m/s 735 mm Hg 89%
17:00 +5°C° 0.1 mm 6 m/s 734 mm Hg 88%
18:00 +4°C° 0.1 mm 6 m/s 734 mm Hg 88%
19:00 +4°C° 0.1 mm 6 m/s 734 mm Hg 89%
20:00 +4°C° 0.1 mm 6 m/s 735 mm Hg 90%
21:00 +4°C° 0.1 mm 6 m/s 735 mm Hg 92%
22:00 +4°C° 0 mm 7 m/s 736 mm Hg 89%
23:00 +4°C° 0 mm 7 m/s 737 mm Hg 86%
Mostrare altro

Abbiamo bisogno del tuo consenso

Meteoprog e i nostri fornitori di servizi possono memorizzare e accedere a dati personali come cookie, identificatori di dispositivi o altre tecnologie simili sul tuo dispositivo e possono elaborare tali dati per personalizzare i contenuti e gli annunci, nonché fornire funzionalità dei social media e analizzarne il traffico.

  • Archiviare e/o accedere alle informazioni sul tuo dispositivo

    Cookie, identificatori di dispositivi o altre informazioni possono essere memorizzati o resi accessibili sul tuo dispositivo per le finalità sopra indicate.

  • Annunci e contenuti personalizzati, misurazione di annunci e contenuti, approfondimenti sul pubblico e sviluppo di prodotti

    Gli annunci e i contenuti possono essere personalizzati in base a un profilo. È possibile aggiungere più dati per personalizzare meglio annunci e contenuti. È possibile misurare il rendimento degli annunci e dei contenuti. È possibile ricavare informazioni sul pubblico che ha visto gli annunci e i contenuti. Tali dati possono essere utilizzati per sviluppare o migliorare l'esperienza, i sistemi e il software dell'utente.

Cliccando su “Accetto”, acconsenti all'uso di cookie, identificatori di dispositivo, web beacon o altre tecnologie simili. Puoi modificare le impostazioni nel browser del tuo dispositivo.

Per determinati scopi, è possibile fare affidamento su interessi legali, piuttosto che sul consenso. Puoi approfondire questo argomento consultando la nostra Informativa sulla privacy e sui cookie.